BIAR

Akureyri  Airport

Akureyri, Iceland
Issued Wind Visibility Ceiling Temperature Dew Point Humidity Barometer
Nov-18
04:00 UTC
170°
3 KTS
10,000+ meters   -4° C
25° F
-6° C
21° F
86% 30.12" Hg
1020 hPa
VFR
Nov-18
03:00 UTC
170°
7 KTS
10,000+ meters Overcast
4,500' AGL
-4° C
25° F
-5° C
23° F
93% 30.09" Hg
1019 hPa
VFR
Nov-18
02:00 UTC
170°
7 KTS
10,000+ meters Broken
4,600' AGL
-3° C
27° F
-5° C
23° F
86% 30.09" Hg
1019 hPa
VFR
Nov-18
01:00 UTC
Varies @2 KTS 10,000+ meters Broken
4,700' AGL
C
32° F
-3° C
27° F
80% 30.06" Hg
1018 hPa
VFR
Nov-18
00:00 UTC
340°
6 KTS
10,000+ meters   C
32° F
-3° C
27° F
80% 30.03" Hg
1017 hPa
VFR
Nov-17
23:00 UTC
330°
7 KTS
10,000+ meters Broken
4,900' AGL
C
34° F
-3° C
27° F
75% 30.03" Hg
1017 hPa
VFR
Nov-17
22:00 UTC
360°
13 KTS
10,000+ meters Broken
4,100' AGL
C
34° F
-3° C
27° F
75% 30" Hg
1016 hPa
VFR
Nov-17
21:00 UTC
350°
14 KTS
Gust 24 KTS
10,000+ meters Overcast
6,200' AGL
C
34° F
-2° C
28° F
81% 29.97" Hg
1015 hPa
VFR
Nov-17
20:00 UTC
010°
15 KTS
10,000+ meters Overcast
4,000' AGL
C
32° F
-1° C
30° F
93% 29.94" Hg
1014 hPa
VFR
Nov-17
19:00 UTC
090°
7 KTS
10,000+ meters Broken
4,400' AGL
C
34° F
-5° C
23° F
65% 29.91" Hg
1013 hPa
VFR
Nov-17
18:00 UTC
080°
3 KTS
10,000+ meters Broken
5,000' AGL
C
32° F
-6° C
21° F
64% 29.85" Hg
1011 hPa
VFR
Nov-17
17:00 UTC
190°
11 KTS
10,000+ meters Broken
5,800' AGL
C
32° F
-5° C
23° F
69% 29.82" Hg
1010 hPa
VFR
Nov-17
16:00 UTC
Varies @3 KTS 10,000+ meters   -1° C
30° F
-6° C
21° F
69% 29.79" Hg
1009 hPa
VFR
Nov-17
15:00 UTC
10,000+ meters   -1° C
30° F
-5° C
23° F
75% 29.79" Hg
1009 hPa
VFR
Nov-17
14:00 UTC
Varies @4 KTS 10,000+ meters   -1° C
30° F
-5° C
23° F
75% 29.76" Hg
1008 hPa
VFR
Nov-17
13:00 UTC
330°
4 KTS
10,000+ meters   -1° C
30° F
-6° C
21° F
69% 29.76" Hg
1008 hPa
VFR
Nov-17
12:00 UTC
190°
6 KTS
10,000+ meters   -1° C
30° F
-6° C
21° F
69% 29.73" Hg
1007 hPa
VFR
Nov-17
11:00 UTC
170°
2 KTS
10,000+ meters   -2° C
28° F
-6° C
21° F
74% 29.73" Hg
1007 hPa
VFR
Nov-17
10:00 UTC
Varies @2 KTS 10,000+ meters   -2° C
28° F
-6° C
21° F
74% 29.7" Hg
1006 hPa
VFR
Nov-17
09:00 UTC
10,000+ meters   -3° C
27° F
-6° C
21° F
80% 29.68" Hg
1005 hPa
VFR
Nov-17
08:00 UTC
10,000+ meters   -3° C
27° F
-6° C
21° F
80% 29.68" Hg
1005 hPa
VFR
Nov-17
07:00 UTC
10,000+ meters   -3° C
27° F
-6° C
21° F
80% 29.65" Hg
1004 hPa
VFR
Nov-17
06:00 UTC
Varies @2 KTS 10,000+ meters   -3° C
27° F
-6° C
21° F
80% 29.65" Hg
1004 hPa
VFR
Nov-17
05:00 UTC
320°
3 KTS
10,000+ meters   -1° C
30° F
-5° C
23° F
75% 29.62" Hg
1003 hPa
VFR